Regional Weather Roundup
Issued by NWS Northern Indiana

Home | Current Version | Previous Version | Text Only | Print | Product List | Glossary On
Versions: 1 2 3 4 5 6 7 8 9 10 11 12 13 14 15 16 17 18 19 20 21 22 23 24 25 26 27 28 29 30 31 32 33 34 35 36 37 38 39 40 41 42 43 44 45 46 47 48 49 50
861
ASUS43 KIWX 221610
RWRIWX

KIWX WEATHER ROUNDUP
NATIONAL WEATHER SERVICE NORTHERN INDIANA
1100 AM EST SUN JAN 22 2017

NOTE: "FAIR" INDICATES FEW OR NO CLOUDS BELOW 12,000 FEET WITH NO
SIGNIFICANT WEATHER AND/OR OBSTRUCTIONS TO VISIBILITY.

* THESE STATIONS ARE NOT UNDER NWS QUALITY CONTROL. THEY ALSO MAY NOT
  REPORT WEATHER SUCH AS PRECIPITATION OR FOG.

INZ001>027-221700-
NORTHERN INDIANA

CITY           SKY/WX    TMP DP  RH WIND       PRES   REMARKS
GARY*          FOG       39  39 100 NE5       29.66R VSB 1/4
VALPARAISO     FOG       41  40  96 N8        29.64R VSB 1/2
LAPORTE*       FOG       39  39 100 N7        29.65R VSB 1/4
KNOX*          CLOUDY    37  32  81 N8        29.64R VSB 1/4
SOUTH BEND     FOG       38  38 100 N7        29.65R VSB 1/4
ELKHART*       FOG       41  39  93 CALM      29.64R VSB 1/4
GOSHEN         FOG       44  42  93 N3        29.63R VSB<1/4
ROCHESTER*     CLOUDY    43  43 100 N6        29.62S FOG
WARSAW*        FOG       41  41 100 CALM      29.63R VSB 1/2
FORT WAYNE     CLOUDY    52  48  86 S6        29.61S
PERU/GRISSOM   CLOUDY    51  51 100 SE3       29.58S
MARION*        CLOUDY    54  48  82 SE7       29.60S

$$
INZ028>050-221700-
CENTRAL INDIANA

CITY           SKY/WX    TMP DP  RH WIND       PRES   REMARKS
LAFAYETTE      CLOUDY    49  49 100 N3        29.60S
KOKOMO*        CLOUDY    51  48  89 CALM      29.61R
MUNCIE*        CLOUDY    56  49  77 E6        29.59S
INDIANAPOLIS   CLOUDY    54  50  86 E7        29.57S

$$
MIZ043>046-050>051-056>058-064>065-071>073-077>080-221700-
SOUTHWEST LOWER MICHIGAN

CITY           SKY/WX    TMP DP  RH WIND       PRES   REMARKS
BATTLE CREEK   FOG       44  44 100 CALM      29.64S VSB 1
BENTON HARBOR  FOG       41  40  96 CALM      29.66R VSB 1/4
COLDWATER*     FOG       46  46 100 CALM      29.64R VSB 1/4
HILLSDALE*     SUNNY     52  46  82 CALM      29.62S
HOLLAND        CLOUDY    43  41  93 CALM      29.66R
GRAND RAPIDS   FOG       37  35  92 NE3       29.66R VSB 1/4
KALAMAZOO      FOG       40  38  93 N6        29.65R VSB<1/4
STURGIS*       FOG       46  46 100 CALM      29.63R VSB<1/4
THREE RIVERS*  FOG       43  43 100 NW3       29.65R VSB<1/4

$$
OHZ001>008-015>018-024>025-221700-
NORTHWEST OHIO

CITY           SKY/WX    TMP DP  RH WIND       PRES   REMARKS
DEFIANCE       CLOUDY    50  47  89 E5        29.61F
FINDLAY        SUNNY     57  51  80 SE6       29.60S
TOLEDO EXPRESS CLOUDY    48  48 100 CALM      29.62S FOG
TOLEDO METCALF CLOUDY    55  53  93 S6        29.63R
LIMA           SUNNY     59  54  83 SE8       29.60S

$$
AND FOR LAKE MICHIGAN COASTAL AND OPEN LAKE BUOY OBSERVATIONS

STATION/POSITION TEMP    WIND        PRES    VSBY  WAVE
                 AIR SEA DIR/SP/G                  HT/PER
                 (F)     (DEG/KT/KT) (MB)    (MI)  (FT/S)
CALUMET HARBOR    38      10/  4/  5 1003.9R
MICHIGAN CITY     37      30/  9/ 10   N/A
BURNS HARBOR      36      70/  8/  9 1005.1R
SAINT JOSEPH      40      30/  2/  5 1004.7

$$
&&




USA.gov is the U.S. government's official web portal to all federal, state and local government web resources and services.